Time,TemperatureF,DewpointF,PressureIn,WindDirection,WindDirectionDegrees,WindSpeedMPH,WindSpeedGustMPH,Humidity,HourlyPrecipIn,Conditions,Clouds,dailyrainin,SoftwareType,DateUTC
2013-12-14 12:37:00,81.2,72.1,30.06,South,183,2.4,6.7,74,0.27,,---,0.02,VWS V13.01,2013-12-14 17:37:00,
2013-12-14 12:42:00,81.1,72.0,30.05,SSE,167,6.6,7.0,74,0.27,,---,0.02,VWS V13.01,2013-12-14 17:42:00,
2013-12-14 12:47:00,81.0,71.7,30.05,SE,139,3.5,4.0,73,0.27,,---,0.02,VWS V13.01,2013-12-14 17:47:00,
2013-12-14 12:52:00,80.7,71.2,30.05,WSW,238,5.1,6.9,73,0.27,,---,0.02,VWS V13.01,2013-12-14 17:52:00,
2013-12-14 12:57:00,80.5,71.1,30.05,ESE,118,5.1,9.8,73,0.27,,---,0.02,VWS V13.01,2013-12-14 17:57:00,
2013-12-14 13:02:00,80.4,71.0,30.05,SSE,155,7.7,11.2,73,0.27,,---,0.02,VWS V13.01,2013-12-14 18:02:00,
2013-12-14 13:07:00,80.3,70.9,30.04,South,179,7.1,10.1,73,0.27,,---,0.02,VWS V13.01,2013-12-14 18:07:00,
2013-12-14 13:12:00,80.5,70.9,30.04,SE,131,7.3,12.6,73,0.27,,---,0.02,VWS V13.01,2013-12-14 18:12:00,
2013-12-14 13:17:00,80.5,71.2,30.04,SE,134,9.4,12.4,73,0.27,,---,0.02,VWS V13.01,2013-12-14 18:17:00,
2013-12-14 13:22:00,81.1,71.8,30.03,East,96,4.2,6.5,73,0.27,,---,0.02,VWS V13.01,2013-12-14 18:22:00,
2013-12-14 13:27:00,81.5,71.6,30.03,SE,132,1.9,6.8,72,0.27,,---,0.02,VWS V13.01,2013-12-14 18:27:00,
2013-12-14 13:32:00,81.4,71.7,30.03,SE,136,7.4,7.5,72,0.27,,---,0.02,VWS V13.01,2013-12-14 18:32:00,
2013-12-14 13:37:00,80.8,70.6,30.02,SE,129,8.3,12.3,71,0.00,,---,0.02,VWS V13.01,2013-12-14 18:37:00,
2013-12-14 13:42:00,81.3,71.4,30.02,SSE,165,9.3,10.4,72,0.00,,---,0.02,VWS V13.01,2013-12-14 18:42:00,
2013-12-14 13:48:00,81.2,71.6,30.02,SSE,165,3.5,10.1,73,0.00,,---,0.02,VWS V13.01,2013-12-14 18:48:00,
2013-12-14 13:53:00,80.6,71.1,30.02,ESE,118,5.7,12.5,73,0.00,,---,0.02,VWS V13.01,2013-12-14 18:53:00,
2013-12-14 13:58:00,80.7,71.2,30.02,SE,135,5.2,7.6,73,0.00,,---,0.02,VWS V13.01,2013-12-14 18:58:00,
2013-12-14 14:03:00,80.4,71.2,30.02,SSE,158,6.9,12.0,74,0.00,,---,0.02,VWS V13.01,2013-12-14 19:03:00,
2013-12-14 14:08:00,80.4,71.1,30.02,SE,125,4.2,11.7,73,0.00,,---,0.02,VWS V13.01,2013-12-14 19:08:00,
2013-12-14 14:13:00,80.6,71.8,30.01,SE,139,3.2,6.5,75,0.00,,---,0.02,VWS V13.01,2013-12-14 19:13:00,
2013-12-14 14:18:00,80.8,71.3,30.01,ESE,122,3.9,5.5,73,0.00,,---,0.02,VWS V13.01,2013-12-14 19:18:00,
2013-12-14 14:23:00,80.5,71.5,30.01,SE,139,8.7,13.0,74,0.00,,---,0.02,VWS V13.01,2013-12-14 19:23:00,
2013-12-14 14:28:00,80.4,71.2,30.01,SE,141,5.3,13.8,74,0.00,,---,0.02,VWS V13.01,2013-12-14 19:28:00,
2013-12-14 14:33:00,80.7,71.3,30.01,SSE,165,4.5,9.8,73,0.00,,---,0.02,VWS V13.01,2013-12-14 19:33:00,
2013-12-14 14:38:00,80.8,71.1,30.01,SSE,152,9.0,9.9,72,0.00,,---,0.02,VWS V13.01,2013-12-14 19:38:00,
2013-12-14 14:43:00,80.6,71.4,30.01,SE,127,2.4,11.6,74,0.00,,---,0.02,VWS V13.01,2013-12-14 19:43:00,
2013-12-14 14:48:00,80.5,71.5,30.01,SSE,166,3.0,3.8,74,0.00,,---,0.02,VWS V13.01,2013-12-14 19:48:00,
2013-12-14 14:53:00,80.6,71.6,30.01,SSW,198,3.7,3.9,74,0.00,,---,0.02,VWS V13.01,2013-12-14 19:53:00,
2013-12-14 14:58:00,80.6,70.8,30.01,SE,145,6.6,11.6,72,0.00,,---,0.02,VWS V13.01,2013-12-14 19:58:00,
2013-12-14 15:03:00,80.2,70.3,30.01,SSW,210,9.7,13.7,72,0.00,,---,0.02,VWS V13.01,2013-12-14 20:03:00,
2013-12-14 15:08:00,80.3,70.9,30.01,SE,135,3.4,5.6,73,0.00,,---,0.02,VWS V13.01,2013-12-14 20:08:00,
2013-12-14 15:13:00,80.3,71.0,30.01,South,180,9.4,12.6,73,0.00,,---,0.02,VWS V13.01,2013-12-14 20:13:00,
2013-12-14 15:18:00,80.6,71.2,30.01,SSE,155,4.9,4.9,73,0.00,,---,0.02,VWS V13.01,2013-12-14 20:18:00,
2013-12-14 15:23:00,80.3,70.9,30.01,South,186,4.9,9.4,73,0.00,,---,0.02,VWS V13.01,2013-12-14 20:23:00,
2013-12-14 15:28:00,80.3,71.2,30.01,East,86,5.2,8.8,74,0.00,,---,0.02,VWS V13.01,2013-12-14 20:28:00,
2013-12-14 15:33:00,80.4,71.2,30.01,South,172,7.3,8.8,74,0.00,,---,0.02,VWS V13.01,2013-12-14 20:33:00,
2013-12-14 15:38:00,80.6,71.2,30.01,South,170,10.7,10.7,73,0.00,,---,0.02,VWS V13.01,2013-12-14 20:38:00,
2013-12-14 15:43:00,81.1,71.5,30.01,South,176,4.2,8.8,73,0.00,,---,0.02,VWS V13.01,2013-12-14 20:43:00,
2013-12-14 15:48:00,81.1,71.2,30.01,SSE,162,6.5,9.2,72,0.00,,---,0.02,VWS V13.01,2013-12-14 20:48:00,
2013-12-14 15:53:00,80.5,70.9,30.01,SSE,165,4.2,9.9,73,0.00,,---,0.02,VWS V13.01,2013-12-14 20:53:00,
2013-12-14 15:58:00,80.5,71.5,30.01,South,173,4.7,8.3,74,0.00,,---,0.02,VWS V13.01,2013-12-14 20:58:00,
2013-12-14 16:03:00,80.4,71.8,30.01,SE,143,4.2,6.8,75,0.00,,---,0.02,VWS V13.01,2013-12-14 21:03:00,
2013-12-14 16:08:00,80.3,71.8,30.01,South,184,8.7,11.9,75,0.00,,---,0.02,VWS V13.01,2013-12-14 21:08:00,
2013-12-14 16:13:00,80.2,71.4,30.01,SSE,165,7.4,9.1,74,0.00,,---,0.02,VWS V13.01,2013-12-14 21:13:00,
2013-12-14 16:18:00,80.1,71.4,30.01,SSW,208,3.0,10.9,75,0.00,,---,0.02,VWS V13.01,2013-12-14 21:18:00,
2013-12-14 16:23:00,80.3,71.7,30.01,SSE,165,4.8,7.3,75,0.00,,---,0.02,VWS V13.01,2013-12-14 21:23:00,
2013-12-14 16:28:00,80.1,71.8,30.01,SSE,150,6.2,8.7,76,0.00,,---,0.02,VWS V13.01,2013-12-14 21:28:00,
2013-12-14 16:33:00,80.0,71.8,30.01,SW,217,4.4,7.3,76,0.00,,---,0.02,VWS V13.01,2013-12-14 21:33:00,
2013-12-14 16:38:00,79.9,71.6,30.01,WNW,283,1.6,5.5,76,0.00,,---,0.02,VWS V13.01,2013-12-14 21:38:00,
2013-12-14 16:43:00,79.8,71.6,30.01,South,180,4.2,6.6,76,0.00,,---,0.02,VWS V13.01,2013-12-14 21:43:00,
2013-12-14 16:48:00,79.4,71.4,30.02,South,177,5.3,10.5,76,0.00,,---,0.02,VWS V13.01,2013-12-14 21:48:00,
2013-12-14 16:53:00,79.3,71.5,30.02,SW,224,3.6,6.5,77,0.00,,---,0.02,VWS V13.01,2013-12-14 21:53:00,
2013-12-14 16:59:00,79.5,71.9,30.02,SSE,166,1.2,6.8,78,0.00,,---,0.02,VWS V13.01,2013-12-14 21:59:00,
2013-12-14 17:04:00,79.3,71.7,30.02,SW,226,3.6,7.8,78,0.00,,---,0.02,VWS V13.01,2013-12-14 22:04:00,
2013-12-14 17:09:00,79.2,71.5,30.02,SSE,159,6.3,6.3,77,0.00,,---,0.02,VWS V13.01,2013-12-14 22:09:00,
2013-12-14 17:14:00,79.1,71.4,30.02,SE,143,2.8,5.0,77,0.00,,---,0.02,VWS V13.01,2013-12-14 22:14:00,
2013-12-14 17:19:00,79.0,71.3,30.03,SSE,166,8.1,8.5,77,0.00,,---,0.02,VWS V13.01,2013-12-14 22:19:00,
2013-12-14 17:24:00,79.1,71.5,30.03,SSW,210,3.7,4.4,78,0.00,,---,0.02,VWS V13.01,2013-12-14 22:24:00,
2013-12-14 17:29:00,79.1,71.6,30.03,SE,136,3.4,3.6,78,0.00,,---,0.02,VWS V13.01,2013-12-14 22:29:00,
2013-12-14 17:34:00,78.9,71.5,30.03,SE,132,4.8,11.9,78,0.00,,---,0.02,VWS V13.01,2013-12-14 22:34:00,
2013-12-14 17:39:00,78.5,71.2,30.03,SSE,153,5.2,6.5,78,0.00,,---,0.02,VWS V13.01,2013-12-14 22:39:00,
2013-12-14 17:44:00,78.9,71.7,30.03,SSE,150,2.4,8.8,78,0.00,,---,0.02,VWS V13.01,2013-12-14 22:44:00,
2013-12-14 17:49:00,78.9,71.8,30.03,SSE,165,5.0,5.0,79,0.00,,---,0.02,VWS V13.01,2013-12-14 22:49:00,
2013-12-14 17:54:00,78.7,71.6,30.03,SE,136,2.3,2.3,79,0.00,,---,0.02,VWS V13.01,2013-12-14 22:54:00,
2013-12-14 17:59:00,78.7,71.6,30.03,SE,136,4.6,5.3,79,0.00,,---,0.02,VWS V13.01,2013-12-14 22:59:00,
2013-12-14 18:04:00,78.5,71.4,30.03,South,177,3.4,4.3,79,0.00,,---,0.02,VWS V13.01,2013-12-14 23:04:00,
2013-12-14 18:09:00,78.5,71.4,30.03,SSW,193,2.0,2.2,79,0.00,,---,0.02,VWS V13.01,2013-12-14 23:09:00,
2013-12-14 18:14:00,78.3,71.3,30.03,South,187,3.8,6.7,79,0.00,,---,0.02,VWS V13.01,2013-12-14 23:14:00,
2013-12-14 18:19:00,78.1,71.2,30.03,SW,218,5.2,8.9,79,0.00,,---,0.02,VWS V13.01,2013-12-14 23:19:00,
2013-12-14 18:24:00,78.3,71.4,30.02,SSE,165,2.7,3.4,79,0.00,,---,0.02,VWS V13.01,2013-12-14 23:24:00,
2013-12-14 18:29:00,78.2,71.3,30.03,South,190,1.9,2.2,79,0.00,,---,0.02,VWS V13.01,2013-12-14 23:29:00,
2013-12-14 18:34:00,78.2,71.3,30.03,SSW,195,5.2,5.2,80,0.00,,---,0.02,VWS V13.01,2013-12-14 23:34:00,
2013-12-14 18:39:00,78.2,71.5,30.03,SE,136,4.2,4.5,80,0.00,,---,0.02,VWS V13.01,2013-12-14 23:39:00,
2013-12-14 18:44:00,78.2,71.5,30.03,SSW,202,4.2,5.4,80,0.00,,---,0.02,VWS V13.01,2013-12-14 23:44:00,
2013-12-14 18:49:00,78.2,71.5,30.03,South,188,2.1,2.7,80,0.00,,---,0.02,VWS V13.01,2013-12-14 23:49:00,
2013-12-14 18:54:00,78.3,71.7,30.03,SSE,160,2.9,5.3,80,0.00,,---,0.02,VWS V13.01,2013-12-14 23:54:00,
2013-12-14 18:59:00,78.2,71.7,30.03,SE,146,2.7,3.9,80,0.00,,---,0.02,VWS V13.01,2013-12-14 23:59:00,
2013-12-14 19:04:00,78.1,71.6,30.03,SSW,193,3.7,3.7,80,0.00,,---,0.02,VWS V13.01,2013-12-15 00:04:00,
2013-12-14 19:09:00,78.1,71.7,30.03,South,169,4.8,6.6,81,0.00,,---,0.02,VWS V13.01,2013-12-15 00:09:00,
2013-12-14 19:14:00,78.2,71.8,30.03,ESE,104,3.7,8.4,81,0.00,,---,0.02,VWS V13.01,2013-12-15 00:14:00,
2013-12-14 19:19:00,78.1,71.7,30.03,SSE,158,2.5,4.8,81,0.00,,---,0.02,VWS V13.01,2013-12-15 00:19:00,
2013-12-14 19:24:00,78.2,71.8,30.03,SSE,152,2.9,3.3,81,0.00,,---,0.02,VWS V13.01,2013-12-15 00:24:00,
2013-12-14 19:29:00,78.2,71.9,30.03,SSW,201,2.8,2.8,81,0.00,,---,0.02,VWS V13.01,2013-12-15 00:29:00,
2013-12-14 19:34:00,78.1,71.8,30.03,South,172,1.7,3.7,81,0.00,,---,0.02,VWS V13.01,2013-12-15 00:34:00,
2013-12-14 19:39:00,78.1,71.8,30.03,South,190,3.2,5.7,81,0.00,,---,0.02,VWS V13.01,2013-12-15 00:39:00,
2013-12-14 19:44:00,78.0,71.6,30.03,South,187,1.5,3.7,81,0.00,,---,0.02,VWS V13.01,2013-12-15 00:44:00,
2013-12-14 19:49:00,78.1,71.7,30.03,South,170,0.6,3.5,81,0.00,,---,0.02,VWS V13.01,2013-12-15 00:49:00,
2013-12-14 19:54:00,78.0,71.6,30.03,South,172,5.2,5.8,81,0.00,,---,0.02,VWS V13.01,2013-12-15 00:54:00,
2013-12-14 19:59:00,77.8,71.5,30.03,South,188,5.2,5.2,81,0.00,,---,0.02,VWS V13.01,2013-12-15 00:59:00,
2013-12-14 20:04:00,77.8,71.5,30.03,SSW,204,1.2,4.3,81,0.00,,---,0.02,VWS V13.01,2013-12-15 01:04:00,
2013-12-14 20:10:00,77.8,71.5,30.03,East,79,0.0,3.5,81,0.00,,---,0.02,VWS V13.01,2013-12-15 01:10:00,
2013-12-14 20:15:00,78.0,71.7,30.03,South,183,0.9,2.9,81,0.00,,---,0.02,VWS V13.01,2013-12-15 01:15:00,
2013-12-14 20:20:00,77.8,71.6,30.03,South,183,0.0,0.0,81,0.00,,---,0.02,VWS V13.01,2013-12-15 01:20:00,
2013-12-14 20:25:00,77.7,71.6,30.03,South,183,0.0,0.0,82,0.00,,---,0.02,VWS V13.01,2013-12-15 01:25:00,
2013-12-14 20:30:00,77.5,71.4,30.03,South,183,0.0,0.0,82,0.00,,---,0.02,VWS V13.01,2013-12-15 01:30:00,
2013-12-14 20:35:00,77.7,71.7,30.03,South,183,0.0,0.0,82,0.00,,---,0.02,VWS V13.01,2013-12-15 01:35:00,
2013-12-14 20:40:00,77.7,71.7,30.03,South,183,0.0,0.0,82,0.00,,---,0.02,VWS V13.01,2013-12-15 01:40:00,
2013-12-14 20:45:00,77.7,71.8,30.03,SSW,201,5.9,6.6,82,0.00,,---,0.02,VWS V13.01,2013-12-15 01:45:00,
2013-12-14 20:50:00,77.9,72.2,30.03,SE,134,4.7,5.1,82,0.00,,---,0.02,VWS V13.01,2013-12-15 01:50:00,
2013-12-14 20:55:00,77.9,72.2,30.03,SSE,165,5.0,6.6,83,0.00,,---,0.02,VWS V13.01,2013-12-15 01:55:00,
2013-12-14 21:00:00,77.7,72.0,30.03,SE,145,5.7,7.5,83,0.00,,---,0.02,VWS V13.01,2013-12-15 02:00:00,
2013-12-14 21:05:00,77.9,72.2,30.03,SE,142,2.9,5.5,83,0.00,,---,0.02,VWS V13.01,2013-12-15 02:05:00,
2013-12-14 21:10:00,77.8,72.2,30.03,South,187,3.2,4.3,83,0.00,,---,0.02,VWS V13.01,2013-12-15 02:10:00,
2013-12-14 21:15:00,77.7,72.0,30.03,South,190,3.2,4.0,83,0.00,,---,0.02,VWS V13.01,2013-12-15 02:15:00,
2013-12-14 21:20:00,77.8,72.1,30.03,SSE,167,3.3,4.3,83,0.00,,---,0.02,VWS V13.01,2013-12-15 02:20:00,
2013-12-14 21:25:00,77.7,71.9,30.03,South,191,4.0,4.4,82,0.00,,---,0.02,VWS V13.01,2013-12-15 02:25:00,
2013-12-14 21:30:00,77.7,72.0,30.02,South,177,0.0,0.0,83,0.00,,---,0.02,VWS V13.01,2013-12-15 02:30:00,
2013-12-14 21:35:00,77.8,72.0,30.02,South,177,0.0,0.0,82,0.00,,---,0.02,VWS V13.01,2013-12-15 02:35:00,
2013-12-14 21:40:00,77.7,71.8,30.03,South,177,0.0,0.0,82,0.00,,---,0.02,VWS V13.01,2013-12-15 02:40:00,
2013-12-14 21:45:00,78.0,72.1,30.02,South,177,0.0,0.0,82,0.00,,---,0.02,VWS V13.01,2013-12-15 02:45:00,
2013-12-14 21:50:00,77.9,72.1,30.02,SSE,165,0.0,0.0,82,0.00,,---,0.02,VWS V13.01,2013-12-15 02:50:00,
2013-12-14 21:55:00,77.8,72.1,30.03,SSE,165,0.0,0.0,83,0.00,,---,0.02,VWS V13.01,2013-12-15 02:55:00,
2013-12-14 22:00:00,77.8,72.2,30.03,SSW,198,3.2,4.6,83,0.00,,---,0.02,VWS V13.01,2013-12-15 03:00:00,
2013-12-14 22:05:00,78.1,72.5,30.03,SSW,212,3.4,4.7,83,0.00,,---,0.02,VWS V13.01,2013-12-15 03:05:00,
2013-12-14 22:10:00,77.8,72.2,30.03,South,174,7.0,8.0,83,0.00,,---,0.02,VWS V13.01,2013-12-15 03:10:00,
2013-12-14 22:15:00,77.9,72.3,30.03,SSW,210,3.4,3.8,83,0.00,,---,0.02,VWS V13.01,2013-12-15 03:15:00,
2013-12-14 22:20:00,77.9,72.3,30.03,South,186,3.0,3.0,83,0.00,,---,0.02,VWS V13.01,2013-12-15 03:20:00,
2013-12-14 22:25:00,77.8,72.2,30.03,SSW,204,3.9,5.8,83,0.00,,---,0.02,VWS V13.01,2013-12-15 03:25:00,
2013-12-14 22:30:00,77.9,72.3,30.03,SW,221,2.5,4.1,83,0.00,,---,0.02,VWS V13.01,2013-12-15 03:30:00,
2013-12-14 22:35:00,77.8,72.2,30.03,SE,142,2.4,3.8,83,0.00,,---,0.02,VWS V13.01,2013-12-15 03:35:00,
2013-12-14 22:40:00,77.7,72.1,30.03,ESE,121,0.0,0.0,83,0.00,,---,0.02,VWS V13.01,2013-12-15 03:40:00,
2013-12-14 22:45:00,77.8,72.3,30.03,ESE,121,0.0,0.0,83,0.00,,---,0.02,VWS V13.01,2013-12-15 03:45:00,
2013-12-14 22:50:00,77.5,72.1,30.03,ESE,121,0.0,0.0,84,0.00,,---,0.02,VWS V13.01,2013-12-15 03:50:00,
2013-12-14 22:55:00,77.9,72.6,30.02,ESE,121,0.0,0.0,84,0.00,,---,0.02,VWS V13.01,2013-12-15 03:55:00,
2013-12-14 23:00:00,77.7,72.4,30.03,ESE,121,0.0,0.0,84,0.00,,---,0.02,VWS V13.01,2013-12-15 04:00:00,
2013-12-14 23:05:00,77.7,72.4,30.03,ESE,121,0.0,0.0,84,0.00,,---,0.02,VWS V13.01,2013-12-15 04:05:00,
2013-12-14 23:11:00,77.7,72.5,30.02,ESE,121,0.0,0.0,84,0.00,,---,0.02,VWS V13.01,2013-12-15 04:11:00,
2013-12-14 23:16:00,77.7,72.6,30.03,ESE,121,0.0,0.0,84,0.00,,---,0.02,VWS V13.01,2013-12-15 04:16:00,
2013-12-14 23:21:00,77.5,72.4,30.02,ESE,121,0.0,0.0,84,0.00,,---,0.02,VWS V13.01,2013-12-15 04:21:00,
2013-12-14 23:26:00,77.8,72.8,30.03,ESE,121,0.0,0.0,85,0.00,,---,0.02,VWS V13.01,2013-12-15 04:26:00,
2013-12-14 23:31:00,77.5,72.5,30.03,ESE,121,0.0,0.0,85,0.00,,---,0.02,VWS V13.01,2013-12-15 04:31:00,
2013-12-14 23:36:00,77.3,72.4,30.03,SSE,162,1.7,4.7,85,0.00,,---,0.02,VWS V13.01,2013-12-15 04:36:00,
2013-12-14 23:41:00,77.4,72.5,30.02,South,180,6.9,6.9,85,0.00,,---,0.02,VWS V13.01,2013-12-15 04:41:00,
2013-12-14 23:46:00,77.5,72.6,30.02,SW,224,0.0,0.0,85,0.00,,---,0.02,VWS V13.01,2013-12-15 04:46:00,
2013-12-14 23:51:00,77.4,72.6,30.02,SW,224,0.0,0.0,85,0.00,,---,0.02,VWS V13.01,2013-12-15 04:51:00,
2013-12-14 23:56:00,77.4,72.5,30.02,SW,228,2.8,8.0,85,0.00,,---,0.02,VWS V13.01,2013-12-15 04:56:00,